When you browse on this site, cookies collect data to enhance your experience and personalize the content and advertising you see.
Visit our Privacy Policy to learn more. By continuing to use the site, you agree to this use of cookies and data.
  • In Czech Republic
  • List of Countries
  • For 7 days
  • Water Temperature
  • Weather Map
  • Weather Widgets
  • user-avatar
    Login

    Hourly Weather Kristinehamn

    Today, 3 June, Wednesday

    Time Temperature Precipitation Wind Pressure Humidity
    00:00 +11°C° 0 mm 4 mps 750 mmHg 74%
    01:00 +9°C° 0 mm 3 mps 750 mmHg 71%
    02:00 +9°C° 0.1 mm 3 mps 750 mmHg 74%
    03:00 +8°C° 0.1 mm 3 mps 750 mmHg 76%
    04:00 +8°C° 0.1 mm 3 mps 749 mmHg 79%
    05:00 +9°C° 0.1 mm 3 mps 749 mmHg 74%
    06:00 +11°C° 0.1 mm 3 mps 750 mmHg 70%
    07:00 +12°C° 0.1 mm 3 mps 750 mmHg 66%
    08:00 +14°C° 0 mm 3 mps 749 mmHg 57%
    09:00 +17°C° 0 mm 3 mps 749 mmHg 49%
    10:00 +18°C° 0 mm 3 mps 749 mmHg 40%
    11:00 +19°C° 0 mm 3 mps 749 mmHg 37%
    12:00 +20°C° 0 mm 3 mps 748 mmHg 34%
    13:00 +21°C° 0 mm 3 mps 748 mmHg 32%
    14:00 +21°C° 0 mm 3 mps 747 mmHg 32%
    15:00 +21°C° 0 mm 3 mps 747 mmHg 33%
    16:00 +21°C° 0 mm 3 mps 747 mmHg 34%
    17:00 +20°C° 0 mm 4 mps 747 mmHg 37%
    18:00 +19°C° 0 mm 4 mps 746 mmHg 41%
    19:00 +18°C° 0 mm 4 mps 746 mmHg 45%
    20:00 +15°C° 0 mm 4 mps 746 mmHg 50%
    21:00 +13°C° 0 mm 4 mps 746 mmHg 55%
    22:00 +12°C° 0 mm 4 mps 747 mmHg 60%
    23:00 +11°C° 0 mm 4 mps 747 mmHg 64%

    Tomorrow, 4 June, Thursday

    Time Temperature Precipitation Wind Pressure Humidity
    00:00 +10°C° 0 mm 4 mps 747 mmHg 68%
    01:00 +8°C° 0 mm 4 mps 747 mmHg 71%
    02:00 +7°C° 0 mm 4 mps 746 mmHg 74%
    03:00 +7°C° 0 mm 4 mps 746 mmHg 77%
    04:00 +7°C° 0 mm 4 mps 746 mmHg 79%
    05:00 +8°C° 0 mm 4 mps 745 mmHg 72%
    06:00 +11°C° 0 mm 4 mps 745 mmHg 65%
    07:00 +13°C° 0 mm 4 mps 745 mmHg 57%
    08:00 +14°C° 0 mm 4 mps 745 mmHg 53%
    09:00 +15°C° 0 mm 4 mps 744 mmHg 49%
    10:00 +18°C° 0 mm 3 mps 744 mmHg 44%
    11:00 +18°C° 0 mm 3 mps 744 mmHg 44%
    12:00 +19°C° 0 mm 3 mps 743 mmHg 44%
    13:00 +19°C° 0 mm 3 mps 743 mmHg 44%
    14:00 +19°C° 0 mm 3 mps 742 mmHg 44%
    15:00 +19°C° 0 mm 3 mps 742 mmHg 45%
    16:00 +19°C° 0 mm 3 mps 741 mmHg 46%
    17:00 +19°C° 0.1 mm 3 mps 741 mmHg 53%
    18:00 +18°C° 0.1 mm 3 mps 741 mmHg 59%
    19:00 +17°C° 0.1 mm 3 mps 741 mmHg 65%
    20:00 +14°C° 0 mm 3 mps 741 mmHg 71%
    21:00 +13°C° 0 mm 4 mps 741 mmHg 77%
    22:00 +11°C° 0 mm 4 mps 741 mmHg 83%
    23:00 +11°C° 0 mm 4 mps 741 mmHg 87%

    Day after tomorrow, 5 June, Friday

    Time Temperature Precipitation Wind Pressure Humidity
    00:00 +10°C° 0 mm 4 mps 741 mmHg 91%
    01:00 +8°C° 0 mm 4 mps 740 mmHg 95%
    02:00 +8°C° 0 mm 4 mps 740 mmHg 93%
    03:00 +8°C° 0 mm 4 mps 740 mmHg 91%
    04:00 +10°C° 0 mm 4 mps 739 mmHg 89%
    05:00 +10°C° 0 mm 4 mps 739 mmHg 85%
    06:00 +10°C° 0 mm 5 mps 739 mmHg 82%
    07:00 +12°C° 0 mm 5 mps 739 mmHg 78%
    08:00 +13°C° 0 mm 5 mps 738 mmHg 74%
    09:00 +14°C° 0 mm 5 mps 738 mmHg 70%
    10:00 +15°C° 0 mm 5 mps 738 mmHg 66%
    11:00 +17°C° 0 mm 6 mps 737 mmHg 61%
    12:00 +19°C° 0 mm 6 mps 737 mmHg 55%
    13:00 +20°C° 0 mm 6 mps 737 mmHg 50%
    14:00 +19°C° 0.3 mm 6 mps 737 mmHg 55%
    15:00 +17°C° 0.3 mm 5 mps 736 mmHg 61%
    16:00 +16°C° 0.3 mm 5 mps 736 mmHg 66%
    17:00 +15°C° 0.8 mm 5 mps 736 mmHg 75%
    18:00 +13°C° 0.8 mm 5 mps 736 mmHg 83%
    19:00 +12°C° 0.8 mm 5 mps 736 mmHg 92%
    20:00 +12°C° 0.8 mm 5 mps 737 mmHg 93%
    21:00 +10°C° 0.8 mm 5 mps 737 mmHg 94%
    22:00 +10°C° 0.8 mm 5 mps 737 mmHg 94%
    23:00 +11°C° 0.6 mm 4 mps 737 mmHg 95%

    6 June, Saturday

    Time Temperature Precipitation Wind Pressure Humidity
    00:00 +11°C° 0.6 mm 4 mps 736 mmHg 96%
    01:00 +11°C° 0.6 mm 3 mps 736 mmHg 97%
    02:00 +11°C° 2.2 mm 3 mps 735 mmHg 97%
    03:00 +11°C° 2.2 mm 3 mps 735 mmHg 97%
    04:00 +11°C° 2.2 mm 4 mps 734 mmHg 96%
    05:00 +11°C° 3.9 mm 4 mps 733 mmHg 96%
    06:00 +11°C° 3.9 mm 4 mps 733 mmHg 96%
    07:00 +11°C° 3.9 mm 4 mps 732 mmHg 96%
    08:00 +11°C° 1.8 mm 4 mps 732 mmHg 96%
    09:00 +11°C° 1.8 mm 4 mps 731 mmHg 97%
    10:00 +11°C° 1.8 mm 4 mps 731 mmHg 97%
    11:00 +12°C° 0.2 mm 4 mps 731 mmHg 90%
    12:00 +13°C° 0.2 mm 5 mps 731 mmHg 83%
    13:00 +13°C° 0.2 mm 5 mps 731 mmHg 76%
    14:00 +14°C° 0.1 mm 4 mps 731 mmHg 70%
    15:00 +16°C° 0.1 mm 3 mps 732 mmHg 63%
    16:00 +17°C° 0.1 mm 2 mps 732 mmHg 57%
    17:00 +16°C° 0.2 mm 2 mps 733 mmHg 62%
    18:00 +15°C° 0.2 mm 2 mps 733 mmHg 68%
    19:00 +13°C° 0.2 mm 3 mps 734 mmHg 73%
    20:00 +12°C° 0 mm 3 mps 734 mmHg 78%
    21:00 +11°C° 0 mm 3 mps 735 mmHg 83%
    22:00 +10°C° 0 mm 3 mps 736 mmHg 88%
    23:00 +10°C° 0 mm 4 mps 737 mmHg 89%

    7 June, Sunday

    Time Temperature Precipitation Wind Pressure Humidity
    00:00 +8°C° 0 mm 4 mps 737 mmHg 91%
    01:00 +8°C° 0 mm 4 mps 738 mmHg 93%
    02:00 +8°C° 0 mm 5 mps 739 mmHg 93%
    03:00 +8°C° 0 mm 5 mps 739 mmHg 93%
    04:00 +8°C° 0 mm 5 mps 740 mmHg 93%
    05:00 +8°C° 0 mm 5 mps 741 mmHg 89%
    06:00 +9°C° 0 mm 5 mps 741 mmHg 84%
    07:00 +10°C° 0 mm 5 mps 742 mmHg 79%
    08:00 +12°C° 0.2 mm 5 mps 742 mmHg 77%
    09:00 +13°C° 0.2 mm 5 mps 742 mmHg 76%
    10:00 +13°C° 0.2 mm 5 mps 743 mmHg 74%
    11:00 +14°C° 0.2 mm 4 mps 743 mmHg 68%
    12:00 +15°C° 0.2 mm 4 mps 743 mmHg 62%
    13:00 +17°C° 0.2 mm 4 mps 744 mmHg 56%
    14:00 +18°C° 0 mm 3 mps 744 mmHg 51%
    15:00 +18°C° 0 mm 3 mps 744 mmHg 46%
    16:00 +19°C° 0 mm 2 mps 744 mmHg 42%
    17:00 +18°C° 0 mm 2 mps 745 mmHg 45%
    18:00 +18°C° 0 mm 2 mps 745 mmHg 49%
    19:00 +19°C° 0 mm 1 mps 745 mmHg 53%
    20:00 +16°C° 0 mm 1 mps 746 mmHg 58%
    21:00 +15°C° 0 mm 1 mps 746 mmHg 64%
    22:00 +13°C° 0 mm 1 mps 747 mmHg 69%
    23:00 +12°C° 0 mm 1 mps 747 mmHg 73%

    8 June, Monday

    Time Temperature Precipitation Wind Pressure Humidity
    00:00 +12°C° 0 mm 1 mps 747 mmHg 77%
    01:00 +11°C° 0 mm 1 mps 748 mmHg 81%
    02:00 +11°C° 0 mm 1 mps 748 mmHg 81%
    03:00 +11°C° 0 mm 1 mps 748 mmHg 82%
    04:00 +11°C° 0 mm 1 mps 748 mmHg 82%
    05:00 +13°C° 0 mm 1 mps 748 mmHg 75%
    06:00 +14°C° 0 mm 1 mps 749 mmHg 68%
    07:00 +16°C° 0 mm 1 mps 749 mmHg 61%
    08:00 +17°C° 0 mm 2 mps 749 mmHg 57%
    09:00 +18°C° 0 mm 2 mps 749 mmHg 53%
    10:00 +19°C° 0 mm 2 mps 750 mmHg 49%
    11:00 +19°C° 0 mm 2 mps 750 mmHg 47%
    12:00 +20°C° 0 mm 2 mps 750 mmHg 45%
    13:00 +20°C° 0 mm 2 mps 750 mmHg 44%
    14:00 +20°C° 0 mm 2 mps 750 mmHg 44%
    15:00 +20°C° 0 mm 2 mps 750 mmHg 44%
    16:00 +20°C° 0 mm 2 mps 750 mmHg 44%
    17:00 +20°C° 0 mm 2 mps 750 mmHg 49%
    18:00 +20°C° 0 mm 1 mps 750 mmHg 53%
    19:00 +19°C° 0 mm 1 mps 751 mmHg 57%
    20:00 +18°C° 0 mm 1 mps 751 mmHg 62%
    21:00 +15°C° 0 mm 1 mps 751 mmHg 66%
    22:00 +13°C° 0 mm 1 mps 752 mmHg 70%
    23:00 +13°C° 0 mm 1 mps 752 mmHg 71%
    Show more